Theta_e
320 323 323 324 321 318 321 323 316 318 318 316 316 317 317 318 320 319 321 324 323 324 325 330 333 334 334 334 333 334 334 334 334 333 333 333 332 332 332 330 332 332 333 333 332 330 329 329 329
322 322 323 317 321 320 320 318 317 316 316 313 315 315 317 319 314 314 319 323 323 321 323 325 327 330 331 331 331 332 332 332 332 331 330 330 330 328 326 325 324 325 325 325 324 324 325 325 324
320 321 320 320 318 320 319 316 315 316 314 315 315 314 314 317 312 314 317 321 322 321 320 322 325 328 330 330 329 329 329 331 330 328 326 324 323 321 319 317 316 316 318 317 317 317 313 309 310
320 316 310 317 321 318 317 315 314 314 315 315 314 315 313 313 313 315 316 319 321 320 318 320 323 325 325 325 325 325 325 326 324 322 320 319 317 315 312 308 309 310 313 313 313 312 310 308 305
317 312 318 318 315 313 313 314 311 314 314 314 313 315 313 311 313 314 317 318 319 319 317 318 323 323 322 322 321 321 320 321 319 317 314 313 313 312 312 312 311 312 312 313 312 311 310 309 309
314 311 317 318 316 316 314 313 312 314 313 313 314 312 313 309 313 313 316 316 317 317 315 316 320 320 320 318 313 312 310 313 313 310 310 310 309 307 309 308 309 310 309 309 308 308 308 307 308
316 316 317 315 317 317 315 310 313 313 312 313 312 313 310 306 312 313 315 315 315 315 314 315 317 317 316 314 311 309 306 306 304 306 303 300 298 297 300 302 304 306 305 304 304 300 299 298 298
313 313 317 316 317 318 316 313 314 313 313 311 310 312 313 306 311 313 313 313 313 313 312 312 313 313 311 311 309 304 301 301 302 299 298 297 297 296 296 297 302 303 301 302 299 296 296 295 296
312 311 314 315 318 317 314 315 314 312 314 313 311 311 309 309 309 310 310 310 311 311 310 308 308 308 307 306 305 302 299 298 298 298 297 297 297 296 297 298 296 296 296 296 297 294 294 294 295
314 311 312 313 316 316 315 313 314 314 312 312 312 307 307 307 306 304 304 305 308 309 308 307 305 305 304 303 302 300 298 297 297 297 297 297 297 297 298 297 296 294 294 293 293 293 293 294 294
315 315 315 316 316 314 314 313 311 312 312 310 311 308 303 303 302 302 302 303 305 307 307 306 304 302 300 299 299 298 296 296 297 297 298 297 297 297 297 296 295 294 294 294 294 294 294 294 294
317 314 314 315 316 315 314 313 313 309 313 311 308 307 303 302 302 302 301 301 302 303 305 304 303 302 301 300 297 296 296 297 297 297 297 297 297 297 296 296 295 294 294 294 295 295 294 294 294
316 316 315 314 314 312 313 312 312 310 308 308 309 305 304 304 303 303 303 302 301 301 302 302 302 301 300 300 298 296 297 297 297 297 296 297 296 296 296 296 295 295 294 294 294 295 295 294 294
314 314 314 313 313 312 314 312 312 313 310 308 308 306 304 305 304 303 303 303 302 302 302 302 301 301 300 300 299 297 298 298 297 296 296 296 296 296 295 295 294 293 293 293 294 294 294 293 293
314 314 312 314 312 312 311 313 311 313 311 309 308 306 305 305 305 304 305 304 304 304 303 302 301 300 300 300 299 298 298 298 297 296 295 295 295 295 295 295 294 294 294 294 294 294 293 292 292
313 312 313 311 311 312 312 314 312 310 309 310 307 306 305 305 305 306 306 305 304 304 303 303 302 300 300 300 299 297 298 298 297 296 295 294 294 294 294 294 294 293 293 292 293 292 292 291 291
309 308 309 311 311 312 311 313 312 310 307 308 307 306 306 307 303 306 307 307 306 306 304 303 302 301 300 299 299 298 298 298 297 296 295 294 293 293 293 293 293 292 292 292 292 291 290 290 290
309 310 310 311 312 311 311 311 312 311 309 307 306 305 305 306 308 309 307 308 307 306 305 304 302 301 300 299 299 298 298 297 297 296 295 294 293 293 293 293 292 292 292 292 291 290 289 289 289
309 309 310 310 310 312 311 312 313 312 309 308 310 310 307 306 309 309 309 309 307 305 303 302 301 300 299 298 298 297 297 297 296 295 295 294 292 292 292 292 291 291 291 291 290 289 289 288 288
310 311 311 311 310 310 311 312 312 311 312 312 310 310 310 310 310 308 306 307 305 305 305 302 300 299 299 298 297 296 295 296 296 295 294 293 292 292 291 291 291 291 290 290 289 288 288 287 287
310 311 311 311 310 308 309 312 310 308 310 311 311 310 311 311 310 310 302 304 304 303 302 301 300 300 298 298 297 296 295 295 294 294 293 293 292 292 291 291 290 290 290 289 288 288 287 287 286
312 310 312 312 311 312 310 313 311 309 309 309 310 310 309 310 310 310 302 301 302 304 302 300 299 298 298 297 296 295 295 294 294 293 293 292 292 291 291 290 290 289 289 288 287 287 287 287 286
313 310 309 310 309 310 310 311 312 309 309 310 311 310 309 309 309 307 302 304 304 303 301 299 298 297 297 297 296 295 294 294 294 293 292 292 292 291 291 290 289 288 288 287 287 287 287 287 286
309 311 310 307 307 312 312 311 313 309 310 310 310 310 310 309 310 302 302 303 302 302 300 298 297 296 297 297 296 296 294 294 293 293 292 292 291 291 290 289 289 288 287 287 286 286 286 286 285
310 310 312 311 311 314 308 310 312 310 309 308 310 310 309 309 308 303 301 299 298 299 298 297 296 295 296 296 295 295 295 294 293 293 292 291 290 290 290 289 288 287 287 286 286 285 285 285 285
308 311 313 311 313 313 307 311 312 309 309 310 307 309 308 306 304 303 301 299 298 298 297 296 295 295 295 295 295 295 295 294 293 293 292 292 291 290 290 289 288 287 286 286 285 285 284 284 283
309 311 310 311 300 307 310 309 311 308 307 306 306 306 305 302 302 302 301 299 298 297 296 297 295 295 295 295 294 294 294 293 293 292 292 292 291 291 291 290 288 287 286 285 285 284 284 283 282
308 308 312 311 313 312 311 310 312 311 309 308 308 304 305 302 302 301 300 299 298 297 297 297 297 296 295 295 294 294 294 294 293 292 292 291 291 291 291 290 288 287 285 285 284 283 282 282 282
306 308 308 309 314 316 317 315 313 312 307 306 306 305 303 301 302 301 301 300 299 299 298 297 297 296 295 295 295 294 294 293 292 292 292 291 291 290 290 289 288 286 285 284 283 282 282 281 281
306 308 310 313 314 311 314 314 312 311 307 305 305 304 305 303 302 302 301 300 298 298 298 297 297 296 297 296 294 294 293 293 291 291 291 291 291 290 290 289 288 286 285 283 282 281 281 281 280
Wind_Speed
1 2 4 3 4 4 4 5 2 3 2 2 2 3 6 3 5 4 11 21 15 21 21 21 21 18 15 14 12 12 12 10 10 9 9 8 6 6 8 6 7 6 4 2 3 2 4 2 3
1 2 3 2 4 2 5 5 6 5 5 6 3 3 2 4 2 5 11 21 20 20 20 20 19 19 15 15 16 15 11 11 11 11 10 9 10 10 8 6 5 5 5 5 5 6 5 4 2
1 2 3 4 3 4 4 5 5 2 4 5 3 1 6 4 3 14 9 26 23 21 20 20 19 16 15 13 13 14 12 12 12 11 11 10 10 8 7 7 7 7 7 7 7 7 5 4 4
1 4 4 3 6 7 5 5 5 5 2 0 5 2 2 3 5 12 23 27 25 23 20 20 18 17 17 16 15 14 13 14 13 12 12 11 10 10 8 6 6 7 9 8 7 7 7 6 6
3 3 2 2 5 6 6 4 8 6 4 5 5 3 3 3 6 16 30 28 27 24 21 21 19 18 17 16 16 15 15 15 14 13 13 12 11 11 10 10 10 10 10 9 9 9 9 10 10
4 3 2 3 5 5 5 6 6 4 3 2 3 4 4 3 17 24 30 28 25 24 22 21 21 20 18 18 17 16 15 15 14 13 13 13 11 11 11 10 11 10 10 10 10 10 10 9 10
5 3 4 4 6 6 5 8 5 6 6 6 2 6 1 5 21 26 29 27 25 23 23 23 23 21 20 19 18 17 16 16 15 14 13 13 11 10 11 10 10 10 9 8 8 7 7 7 8
4 3 3 4 3 6 2 6 1 6 7 1 8 6 6 7 24 25 25 25 25 25 24 25 24 23 22 20 19 18 16 15 15 15 14 13 12 11 10 9 11 9 9 8 7 7 7 6 6
3 3 3 5 3 5 1 3 1 0 3 3 6 3 3 15 28 27 25 24 26 27 27 27 27 25 23 22 21 19 18 16 16 16 15 14 13 11 11 10 9 9 9 8 7 8 8 8 7
4 3 8 6 2 4 2 5 3 2 3 4 4 2 6 30 33 26 26 28 33 34 33 30 29 28 25 24 23 21 19 18 18 17 16 15 14 12 11 8 8 7 8 7 7 7 8 8 8
5 6 6 6 4 5 3 3 4 5 7 9 10 7 10 14 23 23 26 31 41 38 35 35 33 30 29 27 25 23 22 21 20 19 18 17 15 14 11 9 8 7 6 5 5 6 6 8 9
4 9 7 6 4 3 4 2 5 9 14 6 13 6 10 13 17 25 27 33 36 40 40 37 36 34 32 28 28 27 26 24 23 22 21 20 18 15 13 10 8 6 4 3 3 4 6 6 7
6 5 7 7 6 7 1 10 7 13 11 10 6 8 15 15 23 28 32 31 34 39 42 41 39 37 35 32 30 29 27 26 24 23 22 22 20 17 14 12 9 7 4 3 2 3 4 6 8
3 5 7 6 6 5 5 7 5 18 4 13 11 12 13 18 25 25 27 33 38 41 44 43 42 41 38 36 33 32 30 27 26 25 25 23 21 18 16 13 10 8 5 3 1 2 5 7 9
4 9 8 12 7 10 6 13 12 27 3 10 12 11 14 19 20 29 39 38 44 46 44 46 45 43 41 39 35 33 32 30 29 28 27 25 23 20 17 15 13 9 5 3 1 3 6 7 9
4 3 4 1 5 4 10 18 15 11 8 17 12 12 10 15 22 34 36 38 40 42 45 46 47 47 44 43 40 36 33 32 31 30 29 27 24 22 19 16 13 10 7 4 2 2 5 8 12
2 6 8 12 11 6 8 11 12 6 8 13 11 11 11 14 12 29 39 41 42 45 45 46 48 50 49 45 41 38 36 35 34 32 30 28 25 23 20 17 15 12 9 6 3 3 6 9 12
8 6 6 8 3 4 7 15 15 11 6 12 12 11 11 14 22 27 35 42 43 42 45 46 48 49 49 45 41 38 37 37 35 34 32 29 27 25 22 20 17 14 11 8 4 2 4 7 12
2 6 9 8 6 5 10 17 20 20 8 12 17 18 16 16 22 23 29 37 37 37 40 44 46 49 49 47 45 41 43 41 38 36 34 32 29 27 24 22 19 16 13 10 7 4 1 3 11
11 19 20 18 17 6 16 24 14 12 19 19 18 20 22 20 19 17 25 31 36 43 47 45 49 49 52 49 46 33 38 43 41 37 36 34 31 28 26 23 20 18 15 12 9 6 3 2 9
16 14 18 18 6 4 11 26 14 10 17 21 21 22 21 23 23 21 10 26 31 34 42 47 50 53 51 48 43 35 30 28 37 38 37 36 33 30 28 25 22 20 17 14 11 8 5 5 5
20 13 16 14 2 9 3 23 2 7 15 16 20 19 19 21 22 21 10 12 27 40 40 41 44 48 48 49 44 39 33 27 35 36 41 38 35 32 30 27 24 21 19 16 13 11 7 5 6
16 6 7 3 4 4 7 5 4 10 10 17 22 21 17 20 21 16 11 20 35 30 39 40 42 45 43 49 45 43 33 32 28 35 37 37 37 35 33 30 27 25 22 18 16 14 12 8 7
1 2 3 4 3 5 13 11 32 7 11 9 12 18 19 18 21 8 12 16 20 27 32 35 38 39 44 49 48 46 41 38 32 34 37 42 41 39 36 33 30 27 24 22 19 15 13 10 8
4 5 3 3 0 9 3 8 29 6 6 10 16 16 18 17 14 8 9 9 17 27 31 34 38 38 46 47 46 47 44 41 41 42 40 40 41 44 42 36 34 31 28 23 20 18 16 14 12
10 12 6 8 10 16 6 8 15 12 12 14 14 17 15 14 6 9 10 9 17 25 28 30 33 32 40 45 47 47 46 45 43 43 41 42 43 44 43 40 37 32 28 24 21 19 16 15 13
3 6 15 5 1 1 6 15 16 13 10 9 11 12 15 11 9 9 7 7 15 22 29 34 33 32 39 43 40 41 43 43 42 40 42 43 42 41 40 41 38 33 29 26 23 21 19 16 14
7 1 1 2 3 7 8 7 13 20 10 14 14 13 16 11 8 8 7 7 16 19 27 33 36 38 39 41 42 43 46 47 44 42 44 43 41 39 38 39 39 34 31 28 25 22 19 16 14
1 4 4 1 4 15 18 12 30 24 10 9 10 8 8 9 8 8 7 8 17 21 28 32 36 35 35 42 43 42 44 45 42 45 44 43 41 39 38 39 39 37 33 30 26 23 20 19 16
7 11 16 12 16 11 16 19 28 21 7 8 8 9 5 5 8 6 6 6 12 17 25 33 34 37 44 44 39 42 42 43 42 44 45 43 42 38 39 39 39 38 35 32 28 25 22 19 17
Wind_Direction
164 315 341 35 45 60 271 266 228 172 112 249 117 154 178 127 164 206 144 175 175 173 176 176 171 166 166 161 159 158 156 153 151 156 154 142 143 131 101 122 144 144 129 129 59 359 8 11 48
346 16 54 80 92 47 270 256 192 204 171 135 102 94 55 210 146 149 148 177 180 175 178 179 181 178 167 172 173 172 154 157 143 145 138 121 115 114 116 114 109 103 82 67 50 47 47 37 20
68 358 80 101 125 190 226 237 212 219 174 171 114 17 159 212 177 175 179 174 177 177 178 177 170 167 162 160 165 167 150 144 137 133 131 127 127 124 120 114 111 104 84 69 58 51 32 19 7
77 29 28 98 241 257 235 240 198 155 293 105 138 194 276 204 184 184 169 176 179 175 177 177 169 166 164 166 163 157 149 148 141 136 134 129 124 119 120 117 108 97 81 74 64 49 38 31 21
61 60 67 278 250 254 249 207 167 184 193 187 157 224 246 234 187 167 169 177 181 177 181 178 171 168 166 163 158 155 151 145 146 141 136 132 122 115 110 105 98 94 85 76 69 60 53 49 42
40 96 77 240 245 251 263 177 163 203 212 150 152 151 238 246 170 167 173 179 188 184 183 180 175 172 167 167 167 166 164 160 158 153 143 136 131 123 117 110 105 97 87 79 72 66 63 59 48
115 92 224 239 264 293 224 146 188 200 176 231 164 172 277 206 177 172 179 186 189 191 187 184 182 178 174 173 172 172 171 169 164 160 155 150 143 137 129 120 110 100 92 84 78 67 52 45 36
107 96 280 251 251 271 246 179 100 168 226 93 166 225 252 210 176 175 180 187 191 194 196 192 189 187 184 183 180 181 182 178 173 171 165 157 149 146 140 130 118 110 100 91 80 63 54 56 48
97 66 244 253 229 263 355 240 281 286 142 232 206 178 308 166 169 172 178 188 195 200 202 199 197 195 193 191 188 188 186 184 179 173 168 162 159 152 147 143 124 115 99 90 72 65 66 58 52
118 153 226 218 243 247 245 201 236 217 212 244 260 95 133 161 171 175 183 191 197 202 202 204 202 201 198 197 196 194 190 184 180 179 177 173 172 169 165 151 131 113 98 83 78 67 51 46 39
188 217 220 256 235 205 220 243 211 202 247 216 214 193 161 169 182 191 200 199 202 206 206 206 206 205 203 201 199 197 193 187 186 186 184 181 180 178 171 162 148 134 112 96 78 53 38 27 21
217 241 228 263 250 260 224 253 242 203 238 206 227 169 168 182 193 199 206 207 207 210 211 210 208 207 206 204 201 197 195 194 193 191 189 190 188 185 180 174 166 151 131 101 67 44 37 24 9
231 251 246 243 271 253 296 245 232 260 242 247 256 171 189 197 206 211 213 215 212 214 214 214 210 211 209 207 205 203 203 201 197 196 195 197 195 190 187 185 179 172 159 145 94 43 21 9 358
255 265 267 272 243 250 202 277 144 257 208 229 226 213 207 207 209 211 214 216 215 217 218 215 213 213 212 210 208 208 206 203 201 201 202 201 202 198 193 189 181 178 175 158 93 22 10 3 356
295 304 314 257 219 235 140 286 229 253 197 248 243 232 219 221 212 214 218 215 217 219 219 216 214 213 213 213 212 211 209 207 207 206 205 205 203 201 199 195 190 192 192 198 287 353 358 351 345
326 329 314 301 139 246 143 257 256 260 207 255 244 251 237 235 217 226 225 224 221 218 217 218 214 214 213 213 212 211 211 211 211 210 208 207 205 204 200 198 195 193 191 202 231 319 342 346 345
284 247 225 303 195 160 181 243 273 268 205 256 263 252 245 254 242 232 230 228 225 223 217 217 215 215 213 213 212 212 212 213 214 214 212 210 207 205 204 202 198 198 199 208 229 305 342 343 341
222 221 253 241 249 190 230 247 264 267 211 250 268 272 261 254 250 240 229 229 228 224 222 218 213 213 211 210 210 211 213 215 216 216 215 213 211 209 207 204 203 201 203 208 220 277 330 340 339
195 225 233 248 249 206 235 241 247 267 248 244 254 259 255 248 255 246 238 234 222 219 212 211 206 207 204 202 202 205 208 211 213 216 217 215 213 211 209 208 205 204 207 208 213 227 289 355 356
243 253 261 269 261 230 266 259 245 247 262 262 247 249 251 251 252 250 231 219 211 211 212 205 204 202 203 201 200 200 204 212 215 214 216 217 215 213 212 211 211 209 208 208 213 218 202 69 23
232 234 251 255 297 233 295 278 234 241 248 267 261 250 258 253 253 252 206 204 208 203 203 202 201 203 199 200 197 199 203 210 213 215 217 215 216 215 216 215 213 215 214 213 213 215 203 150 84
263 218 251 260 278 274 145 295 163 210 232 248 262 258 248 250 250 252 206 196 203 212 206 202 197 197 197 200 196 192 194 200 213 210 214 213 215 217 218 218 215 218 216 213 212 213 214 176 142
258 187 228 228 201 341 184 252 250 217 235 247 252 257 251 248 252 244 202 208 215 204 201 198 193 195 193 199 200 198 200 206 212 211 215 214 217 219 219 218 216 216 217 215 213 210 209 206 181
179 85 51 52 98 278 233 192 283 197 211 235 253 255 258 253 252 233 215 212 205 200 195 188 187 190 197 201 203 204 203 207 205 208 212 216 216 217 218 217 219 218 218 216 213 209 211 213 210
171 102 293 325 120 230 172 175 256 261 258 223 235 254 256 258 260 198 203 180 173 184 188 185 186 188 197 202 204 209 211 212 212 212 210 210 213 215 216 214 217 217 217 215 212 210 211 209 213
206 199 189 205 247 261 110 229 261 226 238 244 238 248 263 270 233 212 207 191 182 183 185 186 190 190 196 202 206 210 213 216 216 220 216 218 218 219 219 216 217 218 218 216 214 214 214 214 219
196 191 231 288 355 21 260 273 298 269 271 293 272 266 268 272 249 227 207 190 184 185 187 191 192 197 201 206 207 210 213 216 217 219 224 226 225 223 221 219 217 215 217 216 214 215 215 219 221
194 172 84 214 204 235 225 244 260 274 289 277 289 276 279 274 252 242 223 198 198 194 198 199 202 203 206 206 209 213 217 220 221 221 224 224 226 225 223 220 216 213 214 214 213 215 216 220 225
242 245 227 243 198 256 264 255 261 277 265 273 280 309 322 280 255 237 240 219 210 205 210 207 208 207 211 214 213 213 218 221 218 223 226 225 226 222 221 218 211 210 210 210 212 215 217 218 220
220 248 239 239 246 238 254 254 268 271 256 276 264 288 246 261 282 278 248 215 216 208 213 214 210 211 218 221 215 215 218 222 218 220 225 225 224 221 218 212 209 209 209 209 211 212 217 220 221